Weather History for KIML - January, 2013

Change the Weather History Date:

Tuesday, January 1, 2013

  Actual Average Record
Temperature  
Mean Temperature 16 °F 28 °F  
Max Temperature 25 °F 40 °F 67 °F (1939)
Min Temperature 7 °F 15 °F -19 °F (1901)
Degree Days  
Heating Degree Days 49 37  
Month to date heating degree days 49 37  
Cooling Degree Days 0 0  
Month to date cooling degree days 0 0  
Year to date cooling degree days 0 0  
Moisture  
Dew Point 10 °F    
Average Humidity 77    
Maximum Humidity 92    
Minimum Humidity 62    
Precipitation  
Precipitation 0.00 in 0.01 in 0.68 in (1960)
Sea Level Pressure  
Sea Level Pressure 30.25 in    
Wind  
Wind Speed 8 mph (West)    
Max Wind Speed 16 mph    
Max Gust Speed 22 mph    
Visibility 9 miles    
Events      
T = Trace of Precipitation, MM = Missing Value Source: NWS Daily Summary

Daily Weather History Graph

Daily Weather History Graph

Search for Another Location

Airport or City:

Trip Planner

Search our weather history database for the weather conditions in past years. The results will help you decide how hot, cold, wet, or windy it might be!

Date:

Astronomy

Jan. 01, 2013 Rise Set
Actual Time 7:09 AM MST 4:30 PM MST
Civil Twilight 6:39 AM MST 5:01 PM MST
Nautical Twilight 6:05 AM MST 5:35 PM MST
Astronomical Twilight 5:31 AM MST 6:08 PM MST
Moon 9:04 PM MST (1/1) 9:22 AM MST (1/1)
Length of Visible Light 10h 22m
Length of Day
9h 20m
Waning Gibbous, 83% of the Moon is Illuminated
Jan 1
Waning Gibbous
Jan 4
Last Quarter
Jan 11
New
Jan 18
First Quarter
Jan 26
Full

Hourly Weather History & Observations

Time (MST) Temp. Windchill Dew Point Humidity Pressure Visibility Wind Dir Wind Speed Gust Speed Precip Events Conditions
12:36 AM 19.4 °F 11.5 °F 15.8 °F 86% 30.12 in 2.5 mi SW 5.8 mph - N/A   Overcast
12:43 AM 19.4 °F 11.5 °F 15.8 °F 86% 30.12 in 3.0 mi SW 5.8 mph - N/A   Overcast
12:53 AM 18.0 °F 9.8 °F 16.0 °F 92% 30.25 in 5.0 mi SW 5.8 mph - N/A   Overcast
1:17 AM 17.6 °F 8.2 °F 15.8 °F 93% 30.12 in 4.0 mi SW 6.9 mph - N/A   Mostly Cloudy
1:32 AM 15.8 °F 7.2 °F 12.2 °F 86% 30.13 in 7.0 mi SW 5.8 mph - N/A   Scattered Clouds
1:53 AM 12.9 °F 3.8 °F 10.9 °F 92% 30.27 in 9.0 mi WSW 5.8 mph - N/A   Clear
2:53 AM 10.9 °F 1.4 °F 9.0 °F 92% 30.27 in 8.0 mi WSW 5.8 mph - N/A   Clear
3:53 AM 10.0 °F 0.4 °F 8.1 °F 92% 30.27 in 9.0 mi West 5.8 mph - N/A   Partly Cloudy
4:53 AM 12.9 °F 2.6 °F 10.0 °F 88% 30.27 in 9.0 mi West 6.9 mph - N/A   Mostly Cloudy
5:53 AM 8.1 °F -4.3 °F 6.1 °F 92% 30.28 in 10.0 mi WSW 8.1 mph - N/A   Clear
6:53 AM 8.1 °F -0.5 °F 6.1 °F 92% 30.30 in 10.0 mi West 4.6 mph - N/A   Clear
7:53 AM 8.1 °F -7.0 °F 5.0 °F 87% 30.31 in 10.0 mi West 11.5 mph - N/A   Clear
8:53 AM 10.0 °F -0.9 °F 6.1 °F 84% 30.34 in 8.0 mi WNW 6.9 mph - N/A   Mostly Cloudy
9:53 AM 14.0 °F 2.9 °F 8.1 °F 77% 30.34 in 9.0 mi West 8.1 mph - N/A   Clear
10:53 AM 17.1 °F 8.7 °F 10.0 °F 74% 30.32 in 9.0 mi West 5.8 mph - N/A   Clear
11:53 AM 21.0 °F 10.6 °F 10.9 °F 65% 30.28 in 10.0 mi West 9.2 mph - N/A   Clear
12:53 PM 23.0 °F 12.4 °F 12.9 °F 65% 30.25 in 10.0 mi WNW 10.4 mph - N/A   Clear
1:53 PM 25.0 °F 17.1 °F 14.0 °F 63% 30.25 in 10.0 mi West 6.9 mph - N/A   Clear
2:53 PM 24.1 °F 17.0 °F 14.0 °F 65% 30.25 in 10.0 mi West 5.8 mph - N/A   Clear
3:53 PM 21.0 °F 13.4 °F 12.9 °F 71% 30.25 in 10.0 mi West 5.8 mph - N/A   Clear
4:53 PM 15.1 °F 7.7 °F 9.0 °F 77% 30.25 in 10.0 mi WSW 4.6 mph - N/A   Clear
5:53 PM 10.9 °F 0.2 °F 7.0 °F 84% 30.27 in 10.0 mi WSW 6.9 mph - N/A   Clear
6:53 PM 10.9 °F -1.8 °F 6.1 °F 81% 30.28 in 10.0 mi WSW 9.2 mph - N/A   Clear
7:53 PM 12.0 °F -1.3 °F 7.0 °F 80% 30.26 in 10.0 mi West 10.4 mph - N/A   Clear
8:53 PM 15.1 °F 1.1 °F 8.1 °F 74% 30.24 in 10.0 mi West 12.7 mph - N/A   Clear
9:53 PM 16.0 °F 1.1 °F 8.1 °F 71% 30.24 in 10.0 mi West 15.0 mph - N/A   Clear
10:53 PM 16.0 °F 1.7 °F 7.0 °F 68% 30.24 in 10.0 mi West 13.8 mph - N/A   Clear
11:53 PM 19.0 °F 6.1 °F 10.0 °F 68% 30.21 in 10.0 mi West 12.7 mph - N/A   Overcast